1498327200.86,33740,24.44,74208.3,7.27,-28.53,-29.35,0,*7D
1498327202.13,33741,24.44,74212.3,7.27,-28.63,-29.39,0,*73
1498327203.37,33742,24.44,74212.8,7.27,-28.47,-29.23,0,*7D
1498327204.61,33743,24.44,74212.3,7.29,-28.47,-29.29,0,*78
1498327205.89,33744,24.44,74208.3,7.27,-28.47,-29.35,0,*7C
1498327207.12,33745,24.44,74210.8,7.27,-28.47,-29.23,0,*7A
1498327208.38,33746,24.44,74210.3,7.27,-28.69,-29.51,0,*70
1498327209.63,33747,24.44,74208.5,7.27,-28.69,-29.51,0,*71
1498327210.83,33748,24.44,74208.8,7.25,-28.69,-29.57,0,*7A
1498327212.09,33749,24.44,74212.0,7.29,-28.63,-29.51,0,*7B
1498327213.31,33750,24.44,74208.8,7.29,-28.63,-29.79,0,*79
1498327214.59,33751,24.44,74210.8,7.27,-28.79,-29.73,0,*77
1498327215.84,33752,24.44,74210.3,7.27,-28.79,-29.57,0,*72
1498327217.09,33753,24.44,74208.0,7.27,-28.79,-29.57,0,*73
1498327218.32,33754,24.44,74210.5,7.27,-28.69,-29.57,0,*75
1498327219.55,33755,24.44,74212.8,7.27,-28.69,-29.57,0,*74
1498327220.77,33756,24.44,74208.8,7.27,-28.69,-29.57,0,*77
1498327221.97,33757,24.44,74210.5,7.25,-28.69,-29.57,0,*74
1498327223.18,33758,24.44,74208.0,7.25,-28.69,-29.67,0,*78
1498327224.4,33759,24.44,74212.5,7.25,-28.79,-29.67,0,*78
1498327225.63,33760,24.44,74214.5,7.25,-28.79,-29.83,0,*78
1498327226.86,33761,24.44,74208.5,7.25,-28.79,-29.83,0,*79
1498327228.09,33762,24.44,74208.0,7.25,-28.85,-29.89,0,*73
1498327229.32,33763,24.44,74212.3,7.25,-28.79,-29.83,0,*7B
1498327230.57,33764,24.44,74208.5,7.25,-28.79,-29.73,0,*73
1498327231.77,33765,24.44,74212.0,7.25,-28.69,-29.83,0,*7C
1498327232.97,33766,24.44,74212.3,7.25,-28.69,-29.67,0,*75
1498327234.2,33767,24.44,74210.8,7.25,-28.69,-29.73,0,*71
1498327235.45,33768,24.44,74212.8,7.21,-28.75,-29.89,0,*72
1498327236.71,33769,24.44,74212.3,7.21,-28.75,-29.89,0,*73
1498327237.96,33770,24.44,74210.5,7.21,-28.75,-29.89,0,*7B
1498327239.19,33771,24.44,74212.0,7.21,-28.75,-29.83,0,*70
1498327240.47,33772,24.44,74208.8,7.19,-28.91,-30.17,0,*77
1498327241.7,33773,24.44,74210.5,7.21,-28.91,-30.11,0,*7B
1498327242.94,33774,24.44,74208.8,7.21,-28.91,-29.95,0,*78
1498327244.19,33775,24.44,74212.3,7.19,-28.91,-30.11,0,*76
1498327245.44,33776,24.44,74214.5,7.19,-28.91,-30.11,0,*75
1498327246.67,33777,24.44,74212.8,7.21,-28.91,-30.11,0,*7F
1498327247.92,33778,24.44,74210.3,7.19,-28.91,-30.23,0,*7A
1498327249.19,33779,24.44,74212.8,7.19,-29.13,-30.39,0,*7B
1498327250.44,33780,24.44,74212.8,7.19,-29.13,-30.33,0,*77
1498327251.71,33781,24.44,74212.8,7.19,-29.13,-30.39,0,*7C
1498327252.94,33782,24.44,74212.3,7.19,-28.97,-30.33,0,*78
1498327254.17,33783,24.44,74212.0,7.17,-29.13,-30.33,0,*7A
1498327255.4,33784,24.44,74212.3,7.17,-29.01,-30.33,0,*7E
1498327256.65,33785,24.44,74212.3,7.17,-29.13,-30.39,0,*76
1498327257.9,33786,24.44,74212.3,7.17,-29.13,-30.39,0,*75
1498327259.09,33787,24.44,74216.3,7.17,-28.97,-30.23,0,*72
1498327260.35,33788,24.44,74214.0,7.17,-29.01,-30.39,0,*78
1498327261.6,33789,24.44,74212.3,7.17,-29.17,-30.39,0,*7E
1498327262.84,33790,24.44,74216.5,7.17,-29.17,-30.39,0,*76
1498327264.09,33791,24.44,74214.8,7.17,-29.29,-30.39,0,*7A
1498327265.35,33792,24.44,74214.8,7.15,-29.17,-30.27,0,*79
1498327266.59,33793,24.44,74214.5,7.17,-29.17,-30.39,0,*75
1498327267.86,33794,24.44,74214.3,7.15,-29.35,-30.45,0,*7B
1498327269.11,33795,24.44,74214.0,7.17,-29.35,-30.51,0,*7D
1498327270.41,33796,24.44,74214.3,7.15,-29.39,-30.61,0,*73
1498327271.64,33797,24.44,74216.0,7.17,-29.45,-30.55,0,*7C
1498327272.93,33798,24.44,74216.3,7.15,-29.51,-30.61,0,*73
1498327274.2,33799,24.44,74216.0,7.15,-29.57,-30.61,0,*74
1498327275.46,33800,24.44,74216.8,7.15,-29.57,-30.61,0,*7B
1498327276.73,33801,24.44,74218.3,7.15,-29.57,-30.73,0,*79
1498327278.01,33802,24.44,74218.5,7.15,-29.73,-30.77,0,*78
1498327279.28,33803,24.44,74216.0,7.15,-29.67,-30.61,0,*7B
1498327280.54,33804,24.44,74216.8,7.15,-29.39,-30.45,0,*71
1498327281.83,33805,24.44,74216.0,7.15,-29.51,-30.61,0,*78
1498327283.07,33806,24.44,74218.5,7.13,-29.57,-30.61,0,*7B
1498327284.33,33807,24.44,74216.3,7.11,-29.39,-30.45,0,*76
1498327285.58,33808,24.44,74218.0,7.13,-29.39,-30.39,0,*70
1498327286.84,33809,24.44,74218.5,7.15,-29.57,-30.55,0,*75
1498327288.09,33810,24.44,74218.3,7.13,-29.51,-30.39,0,*77
1498327289.37,33811,24.44,74216.0,7.11,-29.73,-30.61,0,*79
1498327290.63,33812,24.44,74214.8,7.11,-29.61,-30.61,0,*79
1498327291.83,33813,24.44,74216.0,7.13,-29.57,-30.45,0,*79
1498327293.1,33814,24.44,74216.8,7.11,-29.89,-30.67,0,*7F
1498327294.36,33815,24.44,74218.3,7.13,-29.89,-30.89,0,*7C
1498327295.61,33816,24.44,74216.5,7.13,-30.17,-30.95,0,*7D
1498327296.87,33817,24.44,74216.8,7.11,-30.05,-30.95,0,*7D
1498327298.13,33818,24.44,74218.5,7.11,-30.05,-30.83,0,*75
1498327299.39,33819,24.44,74216.3,7.11,-29.95,-30.77,0,*7E
1498327300.65,33820,24.44,74216.3,7.11,-29.95,-30.77,0,*74
1498327301.9,33821,24.44,74218.8,7.11,-29.79,-30.61,0,*70
1498327303.16,33822,24.44,74216.8,7.11,-29.89,-30.67,0,*7A
1498327304.42,33823,24.44,74218.0,7.11,-29.89,-30.67,0,*7B
1498327305.64,33824,24.44,74216.3,7.11,-30.23,-31.01,0,*75
1498327306.89,33825,24.44,74214.8,7.11,-30.11,-30.95,0,*79
1498327308.12,33826,24.44,74214.8,7.09,-30.01,-30.83,0,*75
1498327309.35,33827,24.44,74214.3,7.09,-30.01,-30.83,0,*74
1498327310.6,33828,24.44,74214.5,7.09,-30.01,-30.73,0,*74
1498327311.83,33829,24.44,74214.3,7.07,-30.27,-31.05,0,*7F
1498327313.04,33830,24.44,74214.5,7.09,-30.39,-31.17,0,*75
1498327314.29,33831,24.44,74216.3,7.07,-30.39,-31.17,0,*7A
1498327315.56,33832,24.44,74218.5,7.07,-30.55,-31.23,0,*74
1498327316.81,33833,24.44,74218.3,7.07,-30.55,-31.33,0,*74
1498327318.07,33834,24.44,74216.3,7.07,-30.55,-31.39,0,*79
1498327319.3,33835,24.44,74214.8,7.07,-30.67,-31.33,0,*73
1498327320.56,33836,24.44,74212.8,7.07,-30.67,-31.39,0,*7A
1498327321.78,33837,24.44,74214.5,7.05,-30.77,-31.45,0,*73
1498327323.06,33838,24.44,74214.5,7.03,-30.77,-31.39,0,*71
1498327324.34,33839,24.44,74212.3,7.03,-30.77,-31.39,0,*70
1498327325.56,33840,24.44,74212.0,7.05,-30.77,-31.29,0,*79
1498327326.82,33841,24.44,74214.0,7.03,-30.73,-31.29,0,*7A
1498327328.1,33842,24.44,74212.3,7.03,-30.73,-31.23,0,*73
1498327329.38,33843,24.44,74210.5,7.03,-30.73,-31.23,0,*72
1498327330.63,33844,24.44,74214.3,7.03,-30.73,-31.29,0,*7F
1498327331.88,33845,24.44,74214.8,6.99,-30.77,-31.17,0,*75
1498327333.14,33846,24.44,74210.8,6.99,-30.67,-31.11,0,*71
1498327334.39,33847,24.44,74210.5,6.99,-30.67,-31.11,0,*70
1498327335.6,33848,24.44,74212.3,6.97,-30.55,-31.01,0,*71
1498327336.82,33849,24.44,74212.3,6.97,-30.45,-30.95,0,*7D
1498327338.07,33850,24.44,74212.0,6.97,-30.51,-30.89,0,*7D
1498327339.29,33851,24.44,74210.0,6.97,-30.55,-30.83,0,*72
1498327340.54,33852,24.44,74214.5,6.97,-30.17,-30.51,0,*78
1498327341.79,33853,24.44,74212.3,6.99,-30.17,-30.45,0,*72
1498327343.04,33854,24.44,74214.0,6.97,-30.01,-30.17,0,*7B
1498327344.26,33855,24.44,74212.0,6.97,-30.01,-30.27,0,*79
1498327345.51,33856,24.44,74214.0,6.97,-30.01,-30.17,0,*79
1498327346.75,33857,24.44,74212.0,6.99,-30.05,-30.11,0,*74
1498327348.0,33858,24.44,74214.0,6.97,-30.01,-30.17,0,*77
1498327349.2,33859,24.44,74210.8,6.97,-29.95,-29.95,0,*71
1498327350.4,33860,24.44,74210.8,6.97,-29.83,-30.11,0,*78
1498327351.64,33861,24.44,74212.0,6.99,-30.05,-30.11,0,*71
1498327352.9,33862,24.44,74214.5,6.99,-29.95,-29.89,0,*7A
1498327354.12,33863,24.44,74212.8,6.99,-29.61,-29.79,0,*7F
1498327355.39,33864,24.44,74210.5,6.99,-30.05,-30.05,0,*71
1498327356.58,33865,24.44,74208.8,6.97,-30.11,-30.11,0,*7E
1498327357.83,33866,24.44,74214.5,6.97,-30.01,-30.01,0,*7D
1498327359.11,33867,24.44,74210.5,6.99,-29.89,-30.05,0,*7E
1498327360.36,33868,24.44,74212.5,6.99,-30.05,-29.95,0,*7C
1498327361.57,33869,24.44,74208.0,6.97,-30.01,-29.95,0,*77
1498327362.86,33870,24.44,74212.5,6.99,-29.89,-29.89,0,*74
1498327364.06,33871,24.44,74210.0,6.97,-29.95,-29.95,0,*7B
1498327365.25,33872,24.44,74210.5,6.97,-29.95,-29.95,0,*78
1498327366.51,33873,24.44,74210.5,6.99,-29.89,-29.95,0,*7A
1498327367.76,33874,24.44,74210.8,6.99,-29.79,-29.89,0,*7F
1498327369.02,33875,24.44,74208.5,6.99,-29.79,-29.89,0,*7E
1498327370.24,33876,24.44,74212.3,6.97,-30.01,-29.95,0,*79
1498327371.43,33877,24.44,74210.0,6.97,-29.95,-29.95,0,*7D
1498327372.63,33878,24.44,74212.0,6.97,-29.79,-29.83,0,*77
1498327373.84,33879,24.44,74208.8,6.97,-29.67,-29.83,0,*79
1498327375.04,33880,24.44,74208.3,6.97,-29.79,-29.83,0,*70
1498327376.23,33881,24.44,74208.8,6.97,-29.79,-29.83,0,*71
1498327377.46,33882,24.44,74206.3,6.95,-29.67,-29.83,0,*7F
1498327378.66,33883,24.44,74212.3,6.97,-29.45,-29.61,0,*70
1498327379.86,33884,24.44,74212.0,6.97,-29.61,-29.61,0,*71
1498327381.12,33885,24.44,74208.5,6.95,-29.51,-29.67,0,*77
1498327382.37,33886,24.44,74208.5,6.95,-29.35,-29.67,0,*76
1498327383.66,33887,24.44,74214.0,6.95,-29.35,-29.51,0,*72
1498327384.89,33888,24.44,74210.3,6.95,-29.45,-29.67,0,*7F
1498327386.11,33889,24.44,74208.8,6.95,-29.45,-29.61,0,*78
1498327387.37,33890,24.44,74212.0,6.95,-29.35,-29.61,0,*77
1498327388.59,33891,24.44,74216.5,6.97,-29.35,-29.61,0,*74
1498327389.85,33892,24.44,74214.5,6.95,-29.35,-29.61,0,*75
1498327391.09,33893,24.44,74210.3,6.95,-29.29,-29.61,0,*79
1498327392.37,33894,24.44,74212.3,6.95,-29.29,-29.51,0,*7D
1498327393.59,33895,24.44,74208.5,6.93,-29.23,-29.35,0,*72
1498327394.87,33896,24.44,74208.8,6.95,-29.13,-29.35,0,*74
1498327396.11,33897,24.44,74210.3,6.97,-29.13,-29.35,0,*77
1498327397.36,33898,24.44,74210.3,6.95,-29.13,-29.45,0,*7D
1498327398.64,33899,24.44,74214.0,6.95,-29.13,-29.51,0,*79
1498327399.89,33900,24.44,74212.5,6.95,-29.23,-29.51,0,*7B
1498327401.11,33901,24.44,74212.3,6.95,-29.07,-29.45,0,*79
1498327402.36,33902,24.44,74214.0,6.95,-29.13,-29.45,0,*7F
1498327403.63,33903,24.44,74208.5,6.95,-29.13,-29.51,0,*7B
1498327404.91,33904,24.44,74214.5,6.95,-29.13,-29.51,0,*7C
1498327406.13,33905,24.44,74214.5,6.93,-29.13,-29.67,0,*7E
1498327407.38,33906,24.44,74212.3,6.93,-29.13,-29.51,0,*78
1498327408.61,33907,24.44,74212.8,6.93,-29.13,-29.57,0,*7F
1498327409.83,33908,24.44,74212.3,6.93,-28.97,-29.51,0,*7B
1498327411.09,33909,24.44,74212.5,6.93,-29.01,-29.51,0,*74
1498327412.31,33910,24.44,74214.3,6.93,-28.97,-29.51,0,*72
1498327413.56,33911,24.44,74214.3,6.93,-28.79,-29.35,0,*71
1498327414.83,33912,24.44,74212.8,6.95,-28.75,-29.29,0,*75
1498327416.06,33913,24.44,74212.8,6.93,-28.85,-29.51,0,*72
1498327417.28,33914,24.44,74212.8,6.93,-28.85,-29.39,0,*7B
1498327418.5,33915,24.44,74214.8,6.93,-28.69,-29.29,0,*79
1498327419.72,33916,24.44,74214.5,6.93,-28.69,-29.35,0,*77
1498327420.98,33917,24.44,74212.3,6.93,-28.79,-29.51,0,*75
1498327422.2,33918,24.44,74212.3,6.93,-28.69,-29.35,0,*79
1498327423.41,33919,24.44,74214.0,6.93,-28.85,-29.67,0,*7D
1498327424.66,33920,24.44,74212.8,6.93,-29.13,-29.89,0,*79
1498327425.91,33921,24.44,74212.3,6.91,-29.13,-29.83,0,*70
1498327427.17,33922,24.44,74214.0,6.91,-28.97,-29.73,0,*71
1498327428.42,33923,24.44,74212.0,6.91,-28.79,-29.57,0,*76
1498327429.7,33924,24.44,74214.0,6.91,-28.63,-29.39,0,*72
1498327430.98,33925,24.44,74212.5,6.91,-28.63,-29.51,0,*7D
1498327432.24,33926,24.44,74218.3,6.91,-28.53,-29.39,0,*73
1498327433.49,33927,24.44,74212.3,6.91,-28.53,-29.39,0,*72
1498327434.72,33928,24.44,74214.5,6.89,-28.37,-29.35,0,*7A
1498327435.98,33929,24.44,74214.3,6.91,-27.99,-28.85,0,*73
1498327437.2,33930,24.44,74214.8,6.93,-28.09,-28.97,0,*7C
1498327438.47,33931,24.44,74214.5,6.95,-28.21,-29.13,0,*7C
1498327439.71,33932,24.44,74216.0,6.93,-28.25,-29.29,0,*74
1498327440.98,33933,24.44,74214.8,6.95,-28.21,-29.13,0,*7E
1498327442.21,33934,24.44,74218.3,6.93,-28.37,-29.35,0,*7C
1498327443.46,33935,24.44,74218.8,6.93,-28.47,-29.51,0,*78
1498327444.73,33936,24.44,74216.8,6.95,-28.43,-29.51,0,*79
1498327445.93,33937,24.44,74218.5,6.93,-28.53,-29.67,0,*7A
1498327447.15,33938,24.44,74214.8,6.93,-28.69,-29.73,0,*79
1498327448.38,33939,24.44,74216.0,6.93,-28.69,-29.73,0,*78
1498327449.62,33940,24.44,74214.0,6.95,-28.47,-29.67,0,*79
1498327450.85,33941,24.44,74218.0,6.93,-28.63,-29.83,0,*72
1498327452.1,33942,24.44,74218.3,6.93,-28.79,-29.89,0,*70
1498327453.33,33943,24.44,74214.8,6.93,-28.85,-30.01,0,*7A
1498327454.58,33944,24.44,74216.0,6.93,-29.01,-30.05,0,*74
1498327455.84,33945,24.44,74216.5,6.93,-29.01,-30.17,0,*76
1498327457.09,33946,24.44,74216.3,6.93,-29.01,-30.17,0,*75
1498327458.32,33947,24.44,74216.0,6.93,-29.13,-30.23,0,*70
1498327459.56,33948,24.44,74212.5,6.93,-29.13,-30.05,0,*7B
1498327460.81,33949,24.44,74218.8,6.93,-29.13,-30.17,0,*79
1498327462.04,33950,24.44,74214.5,6.93,-28.97,-30.05,0,*7F
1498327463.32,33951,24.44,74216.0,6.91,-29.01,-30.05,0,*72
1498327464.57,33952,24.44,74214.3,6.91,-28.97,-30.05,0,*7F
1498327465.83,33953,24.44,74216.3,6.91,-28.63,-29.83,0,*73
1498327467.06,33954,24.44,74214.3,6.91,-28.53,-29.67,0,*7D
1498327468.3,33955,24.44,74216.3,6.89,-28.37,-29.51,0,*72
1498327469.53,33956,24.44,74218.8,6.91,-28.37,-29.57,0,*7E
1498327470.76,33957,24.44,74218.0,6.91,-28.37,-29.57,0,*7F
1498327471.99,33958,24.44,74216.0,6.91,-28.31,-29.67,0,*75
1498327473.2,33959,24.44,74214.3,6.93,-28.37,-29.67,0,*70
1498327474.44,33960,24.44,74216.3,6.93,-28.63,-29.73,0,*7E
1498327475.67,33961,24.44,74214.5,6.93,-28.63,-29.83,0,*70
1498327476.92,33962,24.44,74216.5,6.93,-28.63,-29.89,0,*79
1498327478.18,33963,24.44,74212.8,6.93,-28.79,-30.01,0,*7B
1498327479.4,33964,24.44,74212.3,6.93,-28.63,-29.83,0,*75
1498327480.63,33965,24.44,74214.3,6.93,-28.53,-29.73,0,*78
1498327481.83,33966,24.44,74216.8,6.93,-28.53,-29.67,0,*7E
1498327483.06,33967,24.44,74216.3,6.93,-28.63,-29.83,0,*76
1498327484.31,33968,24.44,74216.8,6.93,-28.79,-30.05,0,*74
1498327485.56,33969,24.44,74214.3,6.93,-29.01,-30.17,0,*78
1498327486.79,33970,24.44,74212.3,6.95,-28.97,-30.27,0,*7B
1498327488.01,33971,24.44,74218.0,6.93,-29.01,-30.23,0,*76
1498327489.21,33972,24.44,74216.0,6.93,-28.97,-30.23,0,*7B
1498327490.44,33973,24.44,74214.8,6.93,-28.85,-30.17,0,*7E
1498327491.65,33974,24.44,74218.0,6.93,-28.85,-30.23,0,*7E
1498327492.87,33975,24.44,74218.0,6.93,-29.17,-30.33,0,*74
1498327494.12,33976,24.44,74218.5,6.93,-29.17,-30.39,0,*7D
1498327495.37,33977,24.44,74216.5,6.89,-29.17,-30.55,0,*7D
1498327496.65,33978,24.44,74214.0,6.91,-29.13,-30.51,0,*7B
1498327497.93,33979,24.44,74214.0,6.91,-29.17,-30.39,0,*70
1498327499.14,33980,24.44,74216.3,6.89,-29.23,-30.45,0,*73
1498327500.42,33981,24.44,74212.8,6.91,-29.17,-30.39,0,*77
1498327501.64,33982,24.44,74216.3,6.93,-29.17,-30.33,0,*7C
1498327502.9,33983,24.44,74216.3,6.91,-29.13,-30.33,0,*7B
1498327504.16,33984,24.44,74212.8,6.91,-29.13,-30.33,0,*7C
1498327505.39,33985,24.44,74214.0,6.93,-29.17,-30.33,0,*7B
1498327506.63,33986,24.44,74212.8,6.93,-29.17,-30.39,0,*72
1498327507.88,33987,24.44,74212.3,6.93,-29.29,-30.39,0,*7E
1498327509.17,33988,24.44,74214.0,6.91,-29.35,-30.39,0,*7E
1498327510.45,33989,24.44,74214.3,6.91,-29.35,-30.39,0,*7F
1498327511.74,33990,24.44,74212.0,6.91,-29.51,-30.55,0,*7F
1498327513.0,33991,24.44,74212.8,6.91,-29.67,-30.55,0,*7B
1498327514.26,33992,24.44,74212.3,6.91,-29.83,-30.73,0,*76
1498327515.55,33993,24.44,74212.8,6.91,-29.73,-30.61,0,*7B
1498327516.82,33994,24.44,74212.5,6.91,-29.73,-30.55,0,*7B
1498327518.09,33995,24.44,74214.8,6.91,-29.83,-30.61,0,*72
1498327519.38,33996,24.44,74212.0,6.91,-29.73,-30.61,0,*7E
1498327520.63,33997,24.44,74214.5,6.91,-29.67,-30.51,0,*79
1498327521.92,33998,24.44,74212.5,6.91,-29.51,-30.39,0,*7D
1498327523.18,33999,24.44,74214.3,6.91,-29.57,-30.51,0,*74
1498327524.41,34000,24.44,74212.0,6.93,-29.67,-30.39,0,*75
1498327525.69,34001,24.44,74214.3,6.91,-29.51,-30.39,0,*73
1498327526.95,34002,24.44,74214.5,6.91,-29.39,-30.23,0,*75
1498327528.22,34003,24.44,74214.5,6.93,-29.35,-30.17,0,*7D
1498327529.48,34004,24.44,74212.3,6.91,-29.51,-30.23,0,*7D
1498327530.76,34005,24.44,74210.8,6.91,-29.17,-29.89,0,*76
1498327532.01,34006,24.44,74214.5,6.93,-29.17,-30.05,0,*7B
1498327533.24,34007,24.44,74212.8,6.93,-29.39,-30.23,0,*72
1498327534.5,34008,24.44,74212.5,6.91,-29.39,-30.33,0,*7E
1498327535.77,34009,24.44,74212.0,6.91,-29.39,-30.33,0,*7F
1498327537.01,34010,24.44,74214.0,6.93,-29.51,-30.33,0,*7B
1498327538.27,34011,24.44,74214.0,6.91,-29.39,-30.23,0,*77
1498327539.55,34012,24.44,74216.5,6.91,-29.51,-30.39,0,*71
1498327540.81,34013,24.44,74212.8,6.91,-29.67,-30.55,0,*7F
1498327542.1,34014,24.44,74214.5,6.91,-29.51,-30.51,0,*79
1498327543.39,34015,24.44,74212.0,6.91,-29.39,-30.51,0,*76
1498327544.67,34016,24.44,74212.0,6.91,-29.39,-30.39,0,*7B
1498327545.9,34017,24.44,74212.3,6.95,-29.45,-30.45,0,*7E
1498327547.13,34018,24.44,74212.3,6.93,-29.67,-30.61,0,*71
1498327548.37,34019,24.44,74214.5,6.93,-29.83,-30.77,0,*7D
1498327549.64,34020,24.44,74214.5,6.91,-29.83,-30.73,0,*71
1498327550.92,34021,24.44,74216.0,6.91,-29.73,-30.61,0,*7C
1498327552.21,34022,24.44,74212.8,6.91,-29.73,-30.61,0,*7F
1498327553.47,34023,24.44,74216.3,6.91,-29.83,-30.73,0,*72
1498327554.76,34024,24.44,74212.3,6.91,-29.73,-30.73,0,*7A
1498327556.04,34025,24.44,74214.8,6.91,-29.73,-30.73,0,*7B
1498327557.3,34026,24.44,74212.3,6.89,-29.89,-30.95,0,*7C
1498327558.58,34027,24.44,74212.5,6.91,-30.05,-30.95,0,*78
1498327559.85,34028,24.44,74214.8,6.91,-30.05,-30.95,0,*77
1498327561.1,34029,24.44,74214.0,6.91,-30.17,-31.05,0,*7D
1498327562.39,34030,24.44,74214.3,6.91,-30.17,-31.11,0,*70
1498327563.61,34031,24.44,74214.5,6.89,-30.23,-31.11,0,*7F
1498327564.82,34032,24.44,74214.5,6.89,-30.27,-31.29,0,*73
1498327566.08,34033,24.44,74212.0,6.91,-30.33,-31.23,0,*74
1498327567.27,34034,24.44,74212.8,6.89,-30.45,-31.33,0,*7A
1498327568.49,34035,24.44,74212.8,6.89,-30.55,-31.33,0,*7A
1498327569.71,34036,24.44,74214.8,6.89,-30.55,-31.33,0,*79
1498327570.96,34037,24.44,74216.0,6.87,-30.67,-31.51,0,*73
1498327572.23,34038,24.44,74212.8,6.87,-30.61,-31.57,0,*7C
1498327573.42,34039,24.44,74218.0,6.85,-30.45,-31.33,0,*7B
1498327574.67,34040,24.44,74214.0,6.87,-30.45,-31.23,0,*76
1498327575.92,34041,24.44,74214.5,6.85,-30.51,-31.23,0,*70
1498327577.12,34042,24.44,74212.5,6.85,-30.67,-31.33,0,*77
1498327578.32,34043,24.44,74212.0,6.85,-30.45,-31.17,0,*70
1498327579.51,34044,24.44,74214.0,6.85,-30.45,-31.17,0,*77
1498327580.79,34045,24.44,74216.5,6.87,-30.51,-31.23,0,*76
1498327582.04,34046,24.44,74218.8,6.87,-30.73,-31.33,0,*74
1498327583.24,34047,24.44,74212.0,6.85,-30.67,-31.33,0,*72
1498327584.52,34048,24.44,74214.5,6.87,-30.61,-31.23,0,*78
1498327585.8,34049,24.44,74212.8,6.87,-30.61,-31.23,0,*79
1498327587.05,34050,24.44,74214.8,6.85,-30.61,-31.23,0,*73
1498327588.3,34051,24.44,74216.3,6.85,-30.51,-31.23,0,*71
1498327589.49,34052,24.44,74216.8,6.85,-30.45,-31.17,0,*70
1498327590.74,34053,24.44,74216.5,6.85,-30.51,-31.23,0,*73
1498327591.99,34054,24.44,74216.5,6.85,-30.51,-31.23,0,*74
1498327593.19,34055,24.44,74212.5,6.85,-30.33,-31.17,0,*76
1498327594.41,34056,24.44,74218.0,6.83,-30.67,-31.57,0,*76
1498327595.66,34057,24.44,74218.3,6.85,-30.61,-31.39,0,*7F
1498327596.88,34058,24.44,74214.5,6.85,-30.83,-31.57,0,*74
1498327598.08,34059,24.44,74218.8,6.85,-30.83,-31.67,0,*76
1498327599.3,34060,24.44,74216.5,6.85,-30.83,-31.73,0,*79
1498327600.53,34061,24.44,74218.8,6.83,-30.95,-31.79,0,*73
1498327601.78,34062,24.44,74214.5,6.83,-30.95,-31.85,0,*73
1498327603.0,34063,24.44,74218.0,6.83,-31.05,-31.95,0,*7B
1498327604.2,34064,24.44,74218.5,6.83,-31.05,-32.01,0,*72
1498327605.46,34065,24.44,74214.3,6.83,-31.11,-31.95,0,*78
1498327606.7,34066,24.44,74216.0,6.81,-31.11,-32.01,0,*77
1498327607.93,34067,24.44,74218.5,6.83,-31.11,-32.01,0,*74
1498327609.13,34068,24.44,74218.3,6.83,-31.29,-32.13,0,*73
1498327610.33,34069,24.44,74218.3,6.83,-31.29,-32.13,0,*72
1498327611.55,34070,24.44,74218.8,6.81,-31.29,-32.13,0,*78
1498327612.75,34071,24.44,74216.8,6.83,-31.29,-32.13,0,*7B
1498327613.97,34072,24.44,74214.3,6.81,-31.45,-32.13,0,*70
1498327615.19,34073,24.44,74216.8,6.81,-31.45,-32.01,0,*72
1498327616.44,34074,24.44,74218.3,6.81,-31.39,-32.13,0,*7D
1498327617.66,34075,24.44,74216.0,6.81,-31.45,-32.13,0,*77
1498327618.88,34076,24.44,74220.5,6.81,-31.45,-32.13,0,*74
1498327620.12,34077,24.44,74212.3,6.81,-31.39,-32.13,0,*7E
1498327621.35,34078,24.44,74216.3,6.79,-31.45,-32.07,0,*78
1498327622.58,34079,24.44,74218.0,6.79,-31.45,-32.07,0,*79
1498327623.82,34080,24.44,74218.0,6.79,-31.51,-32.07,0,*7A
1498327625.04,34081,24.44,74216.3,6.79,-31.33,-31.95,0,*77
1498327626.26,34082,24.44,74218.8,6.79,-31.17,-31.91,0,*76
1498327627.52,34083,24.44,74216.8,6.75,-31.39,-31.95,0,*73
1498327628.71,34084,24.44,74216.0,6.79,-31.33,-32.01,0,*7C
1498327629.99,34085,24.44,74216.5,6.81,-31.23,-31.95,0,*75
1498327631.22,34086,24.44,74218.3,6.75,-31.33,-31.95,0,*7C
1498327632.41,34087,24.44,74216.0,6.79,-31.29,-32.01,0,*74
1498327633.63,34088,24.44,74216.0,6.79,-31.11,-31.67,0,*73
1498327634.85,34089,24.44,74214.3,6.75,-31.01,-31.57,0,*7C
1498327636.09,34090,24.44,74212.8,6.79,-30.95,-31.51,0,*72
1498327637.31,34091,24.44,74210.5,6.75,-31.17,-31.73,0,*74
1498327638.54,34092,24.44,74208.0,6.75,-31.01,-31.51,0,*70
1498327639.75,34093,24.44,74206.3,6.79,-31.01,-31.51,0,*7D
1498327640.95,34094,24.44,74206.8,6.79,-30.83,-31.29,0,*7E
1498327642.18,34095,24.44,74206.8,6.75,-30.77,-31.33,0,*73
1498327643.4,34096,24.44,74210.0,6.79,-30.73,-31.01,0,*79
1498327644.65,34097,24.44,74212.3,6.81,-30.33,-30.73,0,*7F
1498327645.87,34098,24.44,74210.5,6.83,-30.23,-30.51,0,*73
1498327647.11,34099,24.44,74208.8,6.81,-30.01,-30.23,0,*75
1498327648.39,34100,24.44,74206.3,6.81,-30.17,-30.51,0,*76
1498327649.64,34101,24.44,74210.3,6.83,-30.17,-30.51,0,*75
1498327650.86,34102,24.44,74214.5,6.83,-30.01,-30.23,0,*74
1498327652.11,34103,24.44,74214.5,6.83,-30.51,-30.89,0,*70
1498327653.34,34104,24.44,74214.5,6.85,-30.51,-30.83,0,*7B
1498327654.57,34105,24.44,74212.0,6.85,-30.51,-30.83,0,*7A
1498327655.8,34106,24.44,74208.8,6.85,-30.51,-30.83,0,*79
1498327657.05,34107,24.44,74210.8,6.87,-30.33,-30.51,0,*71
1498327658.28,34108,24.44,74204.5,6.85,-29.67,-30.01,0,*70
1498327659.51,34109,24.44,74204.8,6.87,-30.11,-30.33,0,*7B
1498327660.74,34110,24.44,74206.3,6.87,-30.27,-30.67,0,*77
1498327661.98,34111,24.44,74206.0,6.87,-30.33,-30.83,0,*79
1498327663.21,34112,24.44,74204.0,6.87,-30.33,-30.83,0,*7A
1498327664.42,34113,24.44,74204.3,6.89,-30.27,-30.83,0,*70
1498327665.71,34114,24.44,74204.5,6.91,-30.17,-30.73,0,*72
1498327666.95,34115,24.44,74198.0,6.89,-30.11,-30.77,0,*78
1498327668.18,34116,24.44,74200.5,6.89,-30.23,-30.77,0,*7A
1498327669.39,34117,24.44,74204.0,6.89,-30.23,-30.83,0,*70
1498327670.59,34118,24.44,74204.5,6.89,-30.23,-30.83,0,*7F
1498327671.83,34119,24.44,74210.5,6.89,-30.23,-30.77,0,*75
1498327673.11,34120,24.44,74212.3,6.91,-30.05,-30.61,0,*75
1498327674.34,34121,24.44,74208.5,6.89,-29.95,-30.39,0,*71
1498327675.55,34122,24.44,74208.5,6.89,-29.95,-30.27,0,*7D
1498327676.78,34123,24.44,74212.8,6.89,-29.89,-30.27,0,*71
1498327678.04,34124,24.44,74210.8,6.91,-30.01,-30.33,0,*72
1498327679.24,34125,24.44,74212.0,6.89,-30.23,-30.45,0,*7B
1498327680.52,34126,24.44,74214.3,6.91,-30.17,-30.51,0,*73
1498327681.74,34127,24.44,74208.8,6.93,-30.23,-30.51,0,*77
1498327682.98,34128,24.44,74208.0,6.93,-30.39,-30.55,0,*77
1498327684.23,34129,24.44,74208.0,6.93,-30.51,-30.61,0,*7F
1498327685.45,34130,24.44,74210.3,6.93,-30.23,-30.55,0,*75
1498327686.67,34131,24.44,74208.5,6.93,-30.33,-30.61,0,*72
1498327687.93,34132,24.44,74208.5,6.93,-30.55,-30.77,0,*76
1498327689.17,34133,24.44,74208.3,6.93,-30.39,-30.55,0,*7D
1498327690.38,34134,24.44,74210.3,6.93,-30.23,-30.39,0,*7B
1498327691.6,34135,24.44,74204.3,6.93,-30.23,-30.51,0,*74
1498327692.82,34136,24.44,74208.8,6.93,-30.23,-30.39,0,*79
1498327694.07,34137,24.44,74204.8,6.93,-30.17,-30.51,0,*71
1498327695.32,34138,24.44,74204.3,6.93,-30.39,-30.61,0,*71
1498327696.59,34139,24.44,74206.8,6.95,-30.51,-30.73,0,*7B
1498327697.84,34140,24.44,74208.0,6.95,-30.27,-30.51,0,*74
1498327699.07,34141,24.44,74208.3,6.93,-30.23,-30.61,0,*74
1498327700.29,34142,24.44,74204.5,6.93,-30.23,-30.55,0,*70
1498327701.54,34143,24.44,74210.5,6.95,-29.67,-30.01,0,*7E
1498327702.8,34144,24.44,74208.0,6.95,-29.67,-30.01,0,*79
1498327704.06,34145,24.44,74210.5,6.93,-29.51,-30.01,0,*7B
1498327705.32,34146,24.44,74210.5,6.93,-29.39,-29.89,0,*7E